User: anonymous   Login
Location: Huppendorf
(49.9333°N, 11.1500°E)
Time: 21:45:32
(UTC+00:00)
Language:

STARLINK-1044 - Orbit

View from above orbital plane
View from above orbital plane
View from above satellite
View from above satellite

Ground track
Ground track

The orbit data is extracted from the following two-line orbital elements,

1 44749U 19074AN  20158.58334491 -.00017519 +00000-0 -11852-2 0  9996
2 44749 052.9978 283.3374 0001456 105.7854 097.2782 15.05608636001765
Epoch (UTC): 06 June 2020 14:00:01
Eccentricity: 0.0001456
inclination: 52.9978°
perigee height: 548 km
apogee height: 550 km
right ascension of ascending node: 283.3374°
argument of perigee: 105.7854°
revolutions per day: 15.05608636
mean anomaly at epoch: 97.2782°
orbit number at epoch: 176

The dashed part of the orbit path shows where the satellite is in the earth's shadow,  

DLR